Regional Weather Roundup
Issued by NWS Green Bay, WI

Home | Current Version | Previous Version | Graphics & Text | Print | Product List | Glossary Off
Versions: 1 2 3 4 5 6 7 8 9 10 11 12 13 14 15 16 17 18 19 20 21 22 23 24 25 26 27 28 29 30 31 32 33 34 35 36 37 38 39 40 41 42 43 44 45 46 47 48 49 50

000
ASUS43 KGRB 031711
RWRGRB

NORTH-CENTRAL AND NORTHEAST WISCONSIN REGIONAL WEATHER ROUNDUP
NATIONAL WEATHER SERVICE GREEN BAY WI
1200 PM CDT TUE MAY 03 2016

WIZ005-009-010>012-018-019-031800-
NORTH CENTRAL WISCONSIN

CITY           SKY/WX    TMP DP  RH WIND       PRES   REMARKS
IRONWOOD         N/A     55  37  50 W26G48    29.71F
MANITOWISH WTR CLOUDY    59  37  42 W17G28    29.74F
ARBOR VITAE    CLOUDY    62  38  41 W7        29.75F
EAGLE RIVER    CLOUDY    59  32  35 NW17G29   29.75S
LAND O LAKES   CLOUDY    59  35  39 NW10G16   29.75S
RHINELANDER    CLOUDY    62  35  36 W20G26    29.76F
PHILLIPS       CLOUDY    62  36  37 W8G20     29.77F
ANTIGO         PTSUNNY   63  33  32 W20       29.78F
TOMAHAWK       CLOUDY    63  34  34 W16G25    29.77F
MERRILL        CLOUDY    64  34  32 W15G23    29.78F
$$

WIZ013-073-031800-
NORTHEAST WISCONSIN

CITY           SKY/WX    TMP DP  RH WIND       PRES   REMARKS
IRON MOUNTAIN  CLOUDY    65  32  29 SW17G23   29.69F
MARINETTE      MOSUNNY   70  32  24 W15G23    29.74F
OCONTO         PTSUNNY   68  33  27 W18G26    29.76F
$$

WIZ017-030-035>037-045-031800-
CENTRAL WISCONSIN

CITY           SKY/WX    TMP DP  RH WIND       PRES   REMARKS
MEDFORD        CLOUDY    63  36  36 W15G25    29.79F
WAUSAU         PTSUNNY   68  32  26 W24G30    29.78F
MOSINEE        SUNNY     64  34  32 MISG      29.82F
MARSHFIELD     SUNNY     68  32  26 W16G28    29.81F
WISC RAPIDS    PTSUNNY   67  29  24 NW12      29.84F
STEVENS POINT  MOSUNNY   64  33  30 W12G18    29.82F
WAUPACA        PTSUNNY   68  31  24 W12G17    29.82F
SHAWANO        PTSUNNY   69  31  24 W14G30    29.79F
CLINTONVILLE   MOSUNNY   68  30  24 W15G23    29.79F
WAUTOMA        PTSUNNY   67  33  28 W17G23    29.83
$$

WIZ038-039-048-051-031800-
FOX VALLEY

CITY           SKY/WX    TMP DP  RH WIND       PRES   REMARKS
NWS GREEN BAY  MOSUNNY   69  36  29 W16       29.80F
APPLETON       PTSUNNY   66  30  26 W17G23    29.81F
OSHKOSH        MOSUNNY   66  33  29 W12       29.82F
FOND DU LAC    MOSUNNY   67  33  28 W14       29.84F
$$

WIZ022-050-052-031800-
EAST CENTRAL WISCONSIN

CITY           SKY/WX    TMP DP  RH WIND       PRES   REMARKS
EPHRAIM        FAIR      65  35  32 SW12G18   29.75F
STURGEON BAY   MOSUNNY   66  37  34 SW16      29.80F
MANITOWOC      SUNNY     67  34  29 W16G28    29.82F
SHEBOYGAN      MOSUNNY   65  35  33 W15G23    29.84F
$$

LMZ563-521-522-541>543-031800-
LAKESHORE

STATION/POSITION TIME  TEMP    WIND        PRES    VSBY  WAVE
                       AIR SEA DIR/SP/G                  HT/PER
                 (UTC) (F)     (DEG/KT/KT) (MB)    (MI)  (FT/S)
SHEBOYGAN LKSHOR 1700   65     270/ 14/ 17 1010.4F
KEWAUNEE LKSHORE 1600   64     250/  9/ 15 1009.2F
ALGOMA MARINA    1615          270/ 14/ 19   N/A
NORTHPORT PIER   1620          230/  5/ 13 1007.8F
N MID LAKE BUOY  1650   41 39  190/ 12/ 14 1008.0F         2/ 3
CHAMBERS ISLAND  1600   55     160/  7/ 12 1008.5F
MENOMINEE LKSHOR 1600   66     240/ 14/ 21 1007.2F
$$



USA.gov is the U.S. government's official web portal to all federal, state and local government web resources and services.